Regional Weather Roundup
Issued by NWS

Home | Current Version | Previous Version | Graphics & Text | Print | Product List | Glossary On
Versions: 1 2 3 4 5 6 7 8 9 10 11 12 13 14 15 16 17 18 19 20 21 22 23 24 25 26 27 28 29 30 31 32 33 34 35 36 37 38 39 40 41 42 43 44 45 46 47 48 49 50
000
ASUS45 KSLC 301310
RWRUT

UTAH REGIONAL WEATHER ROUNDUP
NATIONAL WEATHER SERVICE SALT LAKE CITY UT
700 AM MDT SAT MAY 30 2015

UTZ001>011-023>025-301400-

NORTHERN UTAH

CITY           SKY/WX    TMP DP  RH WIND       PRES   REMARKS
BRIGHAM CITY   CLEAR     51  45  81 N5        30.12S
HILL AFB       CLEAR     54  39  57 E16       30.13R
LOGAN          CLEAR     46  43  89 CALM      30.14R
OGDEN          CLEAR     55  43  63 S7        30.12R
PROVO AIRPORT  PTCLDY    52  43  71 CALM      30.15S
SALT LAKE CITY PTCLDY    58  45  62 SE10      30.10R
VERNAL         SUNNY     50  41  71 CALM      30.25R
WENDOVER       MOCLDY    59  48  67 CALM      30.09R
HEBER CITY     CLEAR     43  39  87 CALM      30.24R
WEST JORDAN    PTCLDY    57  46  67 S6        30.13S

$$

UTZ012>022-026-027-301400-

SOUTHERN/CENTRAL UTAH

CITY           SKY/WX    TMP DP  RH WIND       PRES   REMARKS
BLANDING       SUNNY     53  35  50 N3        30.32R
BRYCE CANYON   PTCLDY    41  35  79 W8        30.35R
CEDAR CITY     CLEAR     49  43  80 CALM      30.18S
DELTA          MOCLDY    53  43  71 S6        30.14R
HANKSVILLE     PTCLDY    50  36  57 CALM      30.21R
MILFORD        CLEAR     49  45  86 S7        30.15R
MOAB/CYNLANDS  SUNNY     60  39  45 SE5       30.17R
PRICE          CLEAR     53  39  59 NE6       30.24R
ST GEORGE      SUNNY     64  37  36 CALM      30.07R
KANAB          CLEAR     55  37  50 NW14      30.21R

$$

REGIONAL REPORTS     COLORADO/ARIZONA

CITY           SKY/WX    TMP DP  RH WIND       PRES   REMARKS
CRAIG, CO      SUNNY     41  38  89 CALM      30.31S
GRAND JUNCTION SUNNY     54  41  61 SE9       30.24R
RIFLE          SUNNY     45  39  79 CALM      30.30R
MONTROSE       SUNNY     48  38  68 SE5       30.31R
CORTEZ         SUNNY     42  35  76 E6        30.28R
PAGE, AZ       PTCLDY    66  44  45 NW3       30.16R
GRAND CANYON   CLEAR     46  38  73 NE3       30.28R
KINGMAN        CLEAR     65  17  15 SE9       30.05R
FLAGSTAFF      CLEAR     40  35  83 CALM      30.31R

$$

REGIONAL REPORTS    NEVADA/IDAHO/WYOMING

CITY           SKY/WX    TMP DP  RH WIND       PRES   REMARKS
LAS VEGAS, NV  PTCLDY    75  27  17 SW7       29.91R
ELY            MOCLDY    52  41  66 S15       30.18S
ELKO           PTCLDY    56  45  66 CALM      30.09R
POCATELLO, ID  CLEAR     49  47  93 SW3       30.09F
BURLEY         PTCLDY    58  44  60 E5        30.03S
EVANSTON, WY   SUNNY     46  36  68 SE5       30.26S
ROCK SPRINGS   SUNNY     47  40  76 SE3       30.27R
KEMMERER       PTSUNNY   43  37  81 N8        30.28S

$$


USA.gov is the U.S. government's official web portal to all federal, state and local government web resources and services.